| time (UTC) | temp F | wind direction | speed knots | gust knots | rain 1hr in | rain 24hr in | rain mn in | humidity % | barometer mb |
| 20260505180602 | 51 | 14 | 6.1 | 7.8 | 0.00 | 0.79 | 0.79 | 81 | |
| 20260505180100 | 51 | 0 | 6.1 | 7.8 | 0.00 | 0.79 | 0.79 | 81 | |
| 20260505175555 | 51 | 22 | 7.0 | 8.7 | 0.00 | 0.79 | 0.79 | 80 | |
| 20260505175052 | 51 | 21 | 6.1 | 8.7 | 0.00 | 0.79 | 0.79 | 79 | |
| 20260505174549 | 51 | 30 | 7.8 | 7.8 | 0.00 | 0.79 | 0.79 | 79 | |
| 20260505174045 | 51 | 36 | 6.1 | 8.7 | 0.00 | 0.79 | 0.79 | 79 | |
| 20260505173542 | 51 | 15 | 7.8 | 11.3 | 0.00 | 0.79 | 0.79 | 78 | |
| 20260505173039 | 51 | 22 | 8.7 | 9.6 | 0.00 | 0.79 | 0.79 | 78 | |
| 20260505172537 | 51 | 40 | 6.1 | 8.7 | 0.00 | 0.79 | 0.79 | 77 | |
| 20260505172033 | 51 | 33 | 6.1 | 7.8 | 0.00 | 0.79 | 0.79 | 77 | |
| 20260505171528 | 51 | 31 | 7.0 | 7.8 | 0.00 | 0.79 | 0.79 | 77 | |
| 20260505171025 | 51 | 44 | 4.3 | 7.0 | 0.00 | 0.79 | 0.79 | 76 | |
| 20260505170522 | 51 | 48 | 6.1 | 7.0 | 0.00 | 0.79 | 0.79 | 77 | |
| 20260505170018 | 51 | 48 | 5.2 | 7.0 | 0.00 | 0.79 | 0.79 | 76 | |
| 20260505165513 | 51 | 63 | 7.0 | 9.6 | 0.00 | 0.79 | 0.79 | 76 | |
| 20260505165009 | 51 | 58 | 7.8 | 9.6 | 0.00 | 0.79 | 0.79 | 78 | |
| 20260505164506 | 51 | 57 | 8.7 | 11.3 | 0.00 | 0.79 | 0.79 | 76 | |
| 20260505164004 | 51 | 59 | 7.0 | 9.6 | 0.00 | 0.79 | 0.79 | 78 | |
| 20260505163502 | 51 | 66 | 6.1 | 8.7 | 0.00 | 0.79 | 0.79 | 77 | |
| 20260505163002 | 50 | 69 | 7.0 | 9.6 | 0.00 | 0.79 | 0.79 | 81 | |
| 20260505162457 | 50 | 56 | 7.8 | 11.3 | 0.00 | 0.79 | 0.79 | 79 | |
| 20260505161953 | 50 | 59 | 7.8 | 9.6 | 0.00 | 0.79 | 0.79 | 78 | |
| 20260505161450 | 50 | 58 | 7.0 | 8.7 | 0.00 | 0.79 | 0.79 | 80 | |
| 20260505160947 | 50 | 47 | 7.8 | 11.3 | 0.00 | 0.79 | 0.79 | 78 | |
| 20260505160446 | 50 | 44 | 9.6 | 13.9 | 0.00 | 0.79 | 0.79 | 78 | |
| 20260505152922 | 49 | 44 | 12.2 | 13.9 | 0.00 | 0.79 | 0.79 | 78 | |
| 20260505152419 | 50 | 44 | 8.7 | 13.0 | 0.00 | 0.79 | 0.79 | 77 | |
| 20260505151919 | 50 | 45 | 8.7 | 12.2 | 0.00 | 0.79 | 0.79 | 80 | |
| 20260505151415 | 50 | 37 | 6.1 | 9.6 | 0.00 | 0.79 | 0.79 | 79 | |
| 20260505150913 | 50 | 42 | 13.0 | 14.8 | 0.00 | 0.79 | 0.79 | 74 | |
| 20260505150410 | 50 | 32 | 7.8 | 12.2 | 0.00 | 0.79 | 0.79 | 76 | |
| 20260505140340 | 49 | 41 | 7.8 | 13.0 | 0.00 | 0.79 | 0.79 | 78 | |
| 20260505130303 | 50 | 15 | 13.9 | 19.1 | 0.12 | 0.71 | 0.71 | 79 | |
| 20260505124754 | 51 | 0 | 9.6 | 12.2 | 0.00 | 0.69 | 0.69 | 80 | |
| 20260505124251 | 51 | 13 | 7.8 | 8.7 | 0.00 | 0.69 | 0.69 | 81 | |
| 20260505123746 | 51 | 20 | 7.0 | 7.8 | 0.00 | 0.69 | 0.69 | 82 | |
| 20260505123243 | 51 | 332 | 6.1 | 7.0 | 0.07 | 0.69 | 0.69 | 84 | |
| 20260505122740 | 51 | 344 | 5.2 | 8.7 | 0.07 | 0.69 | 0.69 | 84 | |
| 20260505122237 | 51 | 26 | 5.2 | 7.0 | 0.00 | 0.68 | 0.68 | 82 | |
| 20260505121733 | 51 | 1 | 5.2 | 7.0 | 0.00 | 0.68 | 0.68 | 82 | |
| 20260505121230 | 51 | 350 | 5.2 | 6.1 | 0.05 | 0.68 | 0.68 | 83 | |
| 20260505120726 | 51 | 341 | 4.3 | 7.0 | 0.05 | 0.68 | 0.68 | 81 | |
| 20260505120222 | 51 | 4 | 6.1 | 7.0 | 0.00 | 0.67 | 0.67 | 80 | |
| 20260505115721 | 51 | 358 | 3.5 | 6.1 | 0.00 | 0.67 | 0.67 | 81 | |
| 20260505115219 | 51 | 18 | 6.1 | 8.7 | 0.00 | 0.67 | 0.67 | 81 | |
| 20260505114716 | 51 | 23 | 5.2 | 7.8 | 0.00 | 0.67 | 0.67 | 82 | |
| 20260505114212 | 51 | 34 | 5.2 | 6.1 | 0.00 | 0.67 | 0.67 | 81 | |
| 20260505113709 | 51 | 59 | 3.5 | 6.1 | 0.00 | 0.67 | 0.67 | 82 | |
| 20260505113205 | 51 | 49 | 3.5 | 6.1 | 0.07 | 0.67 | 0.67 | 82 | |
| 20260505112702 | 51 | 24 | 6.1 | 7.8 | 0.12 | 0.67 | 0.67 | 83 | |
| 20260505112200 | 51 | 66 | 4.3 | 7.8 | 0.12 | 0.66 | 0.66 | 83 | |
| 20260505111659 | 51 | 56 | 7.0 | 9.6 | 0.19 | 0.65 | 0.65 | 82 | |
| 20260505111155 | 51 | 41 | 8.7 | 11.3 | 0.19 | 0.63 | 0.63 | 81 | |
| 20260505110651 | 52 | 36 | 7.0 | 8.7 | 0.17 | 0.61 | 0.61 | 80 | |
| 20260505110149 | 53 | 358 | 8.7 | 11.3 | 0.17 | 0.59 | 0.59 | 79 | |
| 20260505102125 | 57 | 7 | 6.1 | 13.0 | 0.00 | 0.48 | 0.48 | 72 | |
| 20260505101623 | 58 | 22 | 7.8 | 9.6 | 0.00 | 0.48 | 0.48 | 71 | |
| 20260505101119 | 58 | 17 | 7.8 | 8.7 | 0.00 | 0.48 | 0.48 | 76 | |
| 20260505100615 | 58 | 38 | 7.0 | 7.8 | 0.00 | 0.48 | 0.48 | 80 | |
| 20260505100113 | 58 | 343 | 7.0 | 7.8 | 0.00 | 0.48 | 0.48 | 85 | |
| 20260505095609 | 58 | 143 | 1.7 | 3.5 | 0.00 | 0.48 | 0.48 | 90 | |
| 20260505095105 | 58 | 256 | 2.6 | 5.2 | 0.00 | 0.48 | 0.48 | 90 | |
| 20260505094602 | 58 | 246 | 5.2 | 8.7 | 0.00 | 0.48 | 0.48 | 90 | |
| 20260505094058 | 58 | 233 | 3.5 | 7.0 | 0.00 | 0.48 | 0.48 | 90 | |
| 20260505093554 | 58 | 250 | 4.3 | 6.1 | 0.00 | 0.48 | 0.48 | 90 | |
| 20260505093052 | 58 | 242 | 4.3 | 6.1 | 0.00 | 0.48 | 0.48 | 91 | |
| 20260505092549 | 58 | 226 | 3.5 | 5.2 | 0.00 | 0.48 | 0.48 | 91 | |
| 20260505092048 | 58 | 228 | 5.2 | 7.0 | 0.00 | 0.48 | 0.48 | 91 | |
| 20260505091544 | 58 | 213 | 7.0 | 9.6 | 0.00 | 0.48 | 0.48 | 93 | |
| 20260505091043 | 58 | 246 | 6.1 | 9.6 | 0.00 | 0.48 | 0.48 | 94 | |
| 20260505090540 | 58 | 197 | 3.5 | 3.5 | 0.00 | 0.48 | 0.48 | 94 | |
| 20260505090038 | 58 | 154 | 0.0 | 2.6 | 0.00 | 0.48 | 0.48 | 94 | |
| 20260505085535 | 58 | 149 | 0.0 | 0.9 | 0.00 | 0.48 | 0.48 | 94 | |
| 20260505085033 | 58 | 140 | 0.0 | 0.0 | 0.00 | 0.48 | 0.48 | 94 | |
| 20260505084531 | 58 | 173 | 4.3 | 7.0 | 0.00 | 0.48 | 0.48 | 94 | |
| 20260505084029 | 58 | 165 | 1.7 | 5.2 | 0.00 | 0.48 | 0.48 | 94 | |
| 20260505083526 | 58 | 190 | 0.0 | 3.5 | 0.00 | 0.48 | 0.48 | 94 | |
| 20260505083022 | 58 | 336 | 5.2 | 6.1 | 0.00 | 0.48 | 0.48 | 93 | |
| 20260505082518 | 58 | 326 | 3.5 | 6.1 | 0.00 | 0.48 | 0.48 | 93 | |
| 20260505082015 | 59 | 7 | 6.1 | 7.8 | 0.00 | 0.48 | 0.48 | 92 | |
| 20260505081511 | 60 | 19 | 7.0 | 12.2 | 0.00 | 0.48 | 0.48 | 89 | |
| 20260505081009 | 60 | 163 | 0.9 | 7.0 | 0.05 | 0.48 | 0.48 | 83 | |
| 20260505080505 | 60 | 280 | 2.6 | 7.0 | 0.12 | 0.48 | 0.48 | 83 | |
| 20260505080000 | 59 | 254 | 5.2 | 7.8 | 0.12 | 0.47 | 0.47 | 92 | |
| 20260505075457 | 58 | 240 | 4.3 | 7.0 | 0.17 | 0.46 | 0.46 | 94 | |
| 20260505074955 | 58 | 178 | 5.2 | 9.6 | 0.24 | 0.45 | 0.45 | 94 | |
| 20260505074452 | 58 | 236 | 6.1 | 9.6 | 0.24 | 0.43 | 0.43 | 93 | |
| 20260505073949 | 58 | 238 | 7.0 | 8.7 | 0.31 | 0.41 | 0.41 | 92 | |
| 20260505073446 | 58 | 240 | 9.6 | 13.9 | 0.26 | 0.39 | 0.39 | 92 | |
| 20260505072943 | 58 | 234 | 10.4 | 14.8 | 0.19 | 0.36 | 0.36 | 91 | |
| 20260505072439 | 58 | 210 | 7.8 | 9.6 | 0.19 | 0.34 | 0.34 | 90 | |
| 20260505071936 | 58 | 252 | 10.4 | 12.2 | 0.19 | 0.32 | 0.32 | 89 | |
| 20260505071432 | 59 | 226 | 10.4 | 13.9 | 0.17 | 0.31 | 0.31 | 88 | |
| 20260505070930 | 59 | 248 | 11.3 | 13.9 | 0.05 | 0.29 | 0.29 | 87 | |
| 20260505070427 | 59 | 249 | 12.2 | 14.8 | 0.00 | 0.28 | 0.28 | 87 | |
| 20260505065922 | 58 | 250 | 13.0 | 15.6 | 0.00 | 0.28 | 0.28 | 86 | |
| 20260505065419 | 58 | 242 | 11.3 | 13.0 | 0.00 | 0.28 | 0.28 | 84 | |
| 20260505064916 | 58 | 232 | 9.6 | 12.2 | 0.07 | 0.28 | 0.28 | 84 | |
| 20260505064413 | 58 | 239 | 8.7 | 9.6 | 0.07 | 0.28 | 0.28 | 85 | |
| 20260505063911 | 57 | 228 | 4.3 | 6.1 | 0.00 | 0.27 | 0.27 | 87 | |
| 20260505063407 | 57 | 187 | 5.2 | 7.0 | 0.05 | 0.27 | 0.27 | 87 | |
| 20260505062904 | 57 | 202 | 3.5 | 7.0 | 0.05 | 0.27 | 0.27 | 87 | |
| 20260505062401 | 57 | 217 | 4.3 | 7.8 | 0.07 | 0.26 | 0.26 | 86 | |
| 20260505061858 | 58 | 215 | 7.8 | 9.6 | 0.12 | 0.26 | 0.26 | 89 | |
| 20260505061356 | 57 | 206 | 3.5 | 7.0 | 0.24 | 0.25 | 0.25 | 91 | |
| 20260505060853 | 58 | 193 | 3.5 | 5.2 | 0.26 | 0.24 | 0.24 | 94 | |
| 20260505060350 | 57 | 195 | 7.8 | 7.8 | 0.19 | 0.21 | 0.21 | 93 | |
| 20260505055846 | 58 | 192 | 0.9 | 2.6 | 0.24 | 0.20 | 0.20 | 92 | |
| 20260505055342 | 58 | 118 | 0.9 | 1.7 | 1.06 | 0.18 | 0.18 | 91 | |
| 20260505054839 | 61 | 181 | 4.3 | 13.0 | 0.90 | 0.15 | 0.15 | 84 | |
| 20260505054337 | 66 | 314 | 7.8 | 18.2 | 0.00 | 0.00 | 0.00 | 72 | |
| 20260505053835 | 65 | 240 | 8.7 | 13.0 | 0.00 | 0.00 | 0.00 | 71 | |
| 20260505053331 | 66 | 205 | 9.6 | 16.5 | 0.00 | 0.00 | 0.00 | 71 | |
| 20260505052828 | 67 | 205 | 8.7 | 20.9 | 0.00 | 0.00 | 0.00 | 66 | |
| 20260505052325 | 67 | 210 | 10.4 | 14.8 | 0.00 | 0.00 | 0.00 | 66 | |
| 20260505051822 | 67 | 217 | 9.6 | 19.1 | 0.00 | 0.00 | 0.00 | 65 | |
| 20260505051320 | 67 | 215 | 13.0 | 15.6 | 0.00 | 0.00 | 0.00 | 65 | |
| 20260505050818 | 67 | 198 | 9.6 | 14.8 | 0.00 | 0.00 | 0.00 | 64 | |
| 20260505050316 | 68 | 229 | 9.6 | 13.0 | 0.00 | 0.00 | 0.00 | 64 | |
| 20260505041746 | 68 | 233 | 15.6 | 19.1 | 0.00 | 0.22 | 0.22 | 62 | |
| 20260505041243 | 68 | 200 | 12.2 | 15.6 | 0.00 | 0.22 | 0.22 | 63 | |
| 20260505040740 | 68 | 212 | 10.4 | 15.6 | 0.00 | 0.22 | 0.22 | 63 | |
| 20260505040238 | 68 | 222 | 10.4 | 21.7 | 0.00 | 0.22 | 0.22 | 63 | |
| 20260505035734 | 68 | 198 | 12.2 | 18.2 | 0.00 | 0.22 | 0.22 | 63 | |
| 20260505035230 | 68 | 207 | 11.3 | 19.1 | 0.00 | 0.22 | 0.22 | 64 | |
| 20260505034727 | 68 | 186 | 9.6 | 15.6 | 0.00 | 0.22 | 0.22 | 63 | |
| 20260505034224 | 68 | 166 | 12.2 | 20.0 | 0.00 | 0.22 | 0.22 | 64 | |
| 20260505033721 | 68 | 191 | 7.8 | 14.8 | 0.00 | 0.22 | 0.22 | 63 | |
| 20260505033218 | 68 | 206 | 9.6 | 14.8 | 0.00 | 0.22 | 0.22 | 64 | |
| 20260505032716 | 68 | 213 | 13.0 | 19.1 | 0.00 | 0.22 | 0.22 | 63 | |
| 20260505032212 | 68 | 294 | 10.4 | 18.2 | 0.00 | 0.22 | 0.22 | 63 | |
| 20260505031710 | 68 | 190 | 9.6 | 18.2 | 0.00 | 0.22 | 0.22 | 64 | |
| 20260505031206 | 68 | 169 | 8.7 | 20.0 | 0.00 | 0.22 | 0.22 | 64 | |
| 20260505030703 | 68 | 189 | 14.8 | 22.6 | 0.00 | 0.22 | 0.22 | 63 | |
| 20260505030159 | 68 | 183 | 8.7 | 18.2 | 0.00 | 0.22 | 0.22 | 62 | |
| 20260505025655 | 69 | 209 | 14.8 | 21.7 | 0.00 | 0.22 | 0.22 | 62 | |
| 20260505025153 | 69 | 208 | 11.3 | 20.0 | 0.00 | 0.22 | 0.22 | 61 | |
| 20260505024651 | 69 | 207 | 13.9 | 20.0 | 0.00 | 0.22 | 0.22 | 61 | |
| 20260505024147 | 69 | 205 | 12.2 | 15.6 | 0.00 | 0.22 | 0.22 | 61 | |
| 20260505023645 | 69 | 226 | 13.0 | 16.5 | 0.00 | 0.22 | 0.22 | 61 | |
| 20260505023142 | 69 | 188 | 13.9 | 22.6 | 0.00 | 0.22 | 0.22 | 61 | |
| 20260505022640 | 69 | 210 | 14.8 | 20.9 | 0.00 | 0.22 | 0.22 | 61 | |
| 20260505022137 | 69 | 170 | 13.9 | 19.1 | 0.00 | 0.22 | 0.22 | 61 | |
| 20260505021633 | 68 | 213 | 14.8 | 19.1 | 0.00 | 0.22 | 0.22 | 62 | |
| 20260505021130 | 68 | 192 | 14.8 | 18.2 | 0.00 | 0.22 | 0.22 | 62 | |
| 20260505020626 | 68 | 202 | 14.8 | 22.6 | 0.00 | 0.22 | 0.22 | 62 | |
| 20260505020122 | 68 | 196 | 14.8 | 20.9 | 0.00 | 0.22 | 0.22 | 62 | |
| 20260505015619 | 68 | 203 | 13.0 | 20.9 | 0.00 | 0.22 | 0.22 | 63 | |
| 20260505015116 | 68 | 217 | 13.0 | 18.2 | 0.00 | 0.22 | 0.22 | 64 | |
| 20260505014613 | 68 | 193 | 13.0 | 16.5 | 0.00 | 0.22 | 0.22 | 63 | |
| 20260505014110 | 68 | 214 | 11.3 | 16.5 | 0.00 | 0.22 | 0.22 | 62 | |
| 20260505013607 | 68 | 225 | 9.6 | 19.1 | 0.00 | 0.22 | 0.22 | 63 | |
| 20260505013104 | 68 | 210 | 11.3 | 14.8 | 0.00 | 0.22 | 0.22 | 65 | |
| 20260505012602 | 68 | 182 | 9.6 | 14.8 | 0.00 | 0.22 | 0.22 | 64 | |
| 20260505012059 | 68 | 188 | 13.0 | 20.0 | 0.00 | 0.22 | 0.22 | 63 | |
| 20260505011554 | 69 | 100 | 11.3 | 16.5 | 0.00 | 0.22 | 0.22 | 62 | |
| 20260505011052 | 69 | 194 | 7.8 | 14.8 | 0.00 | 0.22 | 0.22 | 62 | |
| 20260505010547 | 69 | 191 | 9.6 | 15.6 | 0.00 | 0.22 | 0.22 | 61 | |
| 20260505010044 | 69 | 194 | 14.8 | 19.1 | 0.00 | 0.22 | 0.22 | 60 | |
| 20260505005540 | 69 | 189 | 13.0 | 18.2 | 0.00 | 0.22 | 0.22 | 60 | |
| 20260505005038 | 69 | 191 | 15.6 | 18.2 | 0.00 | 0.22 | 0.22 | 61 | |
| 20260505004535 | 68 | 233 | 13.0 | 18.2 | 0.00 | 0.22 | 0.22 | 63 | |
| 20260505004031 | 67 | 280 | 13.0 | 20.9 | 0.00 | 0.22 | 0.22 | 65 | |
| 20260505003529 | 68 | 205 | 16.5 | 20.0 | 0.00 | 0.22 | 0.22 | 64 | |
| 20260505003026 | 68 | 198 | 7.0 | 20.0 | 0.00 | 0.22 | 0.22 | 64 | |
| 20260505002521 | 69 | 221 | 9.6 | 14.8 | 0.00 | 0.22 | 0.22 | 62 | |
| 20260505002020 | 70 | 242 | 11.3 | 14.8 | 0.00 | 0.22 | 0.22 | 60 | |
| 20260505001517 | 71 | 207 | 9.6 | 13.9 | 0.00 | 0.22 | 0.22 | 59 | |
| 20260505001014 | 71 | 228 | 10.4 | 14.8 | 0.00 | 0.22 | 0.22 | 57 | |
| 20260505000511 | 72 | 240 | 9.6 | 13.9 | 0.00 | 0.22 | 0.22 | 55 | |
| 20260505000009 | 72 | 238 | 8.7 | 12.2 | 0.00 | 0.22 | 0.22 | 55 | |
| 20260504235505 | 72 | 220 | 11.3 | 15.6 | 0.00 | 0.22 | 0.22 | 54 | |
| 20260504235002 | 73 | 246 | 7.8 | 12.2 | 0.00 | 0.22 | 0.22 | 54 | |
| 20260504234459 | 73 | 206 | 13.0 | 16.5 | 0.00 | 0.22 | 0.22 | 53 | |
| 20260504233955 | 73 | 211 | 13.0 | 15.6 | 0.00 | 0.22 | 0.22 | 55 | |
| 20260504233451 | 73 | 204 | 10.4 | 19.1 | 0.00 | 0.22 | 0.22 | 54 | |
| 20260504232948 | 72 | 178 | 8.7 | 13.9 | 0.00 | 0.22 | 0.22 | 55 | |
| 20260504232445 | 72 | 199 | 15.6 | 19.1 | 0.00 | 0.22 | 0.22 | 55 | |
| 20260504231943 | 72 | 211 | 7.8 | 13.0 | 0.00 | 0.22 | 0.22 | 57 | |
| 20260504231439 | 72 | 198 | 13.0 | 16.5 | 0.00 | 0.22 | 0.22 | 55 | |
| 20260504230935 | 72 | 239 | 13.0 | 18.2 | 0.00 | 0.22 | 0.22 | 55 | |
| 20260504230432 | 72 | 204 | 15.6 | 21.7 | 0.00 | 0.22 | 0.22 | 54 | |
| 20260504225931 | 72 | 216 | 7.8 | 14.8 | 0.00 | 0.22 | 0.22 | 57 | |
| 20260504225427 | 72 | 238 | 7.8 | 15.6 | 0.00 | 0.22 | 0.22 | 57 | |
| 20260504224925 | 72 | 226 | 7.8 | 13.9 | 0.00 | 0.22 | 0.22 | 57 | |
| 20260504224421 | 73 | 195 | 9.6 | 21.7 | 0.00 | 0.22 | 0.22 | 56 | |
| 20260504223919 | 73 | 205 | 7.0 | 14.8 | 0.00 | 0.22 | 0.22 | 56 | |
| 20260504223414 | 73 | 227 | 8.7 | 14.8 | 0.00 | 0.22 | 0.22 | 55 | |
| 20260504222910 | 73 | 261 | 12.2 | 16.5 | 0.00 | 0.22 | 0.22 | 54 | |
| 20260504222407 | 73 | 254 | 10.4 | 16.5 | 0.00 | 0.22 | 0.22 | 52 | |
| 20260504221906 | 74 | 183 | 14.8 | 20.0 | 0.00 | 0.22 | 0.22 | 52 | |
| 20260504221402 | 74 | 231 | 12.2 | 18.2 | 0.00 | 0.22 | 0.22 | 51 | |
| 20260504220859 | 74 | 217 | 10.4 | 20.9 | 0.00 | 0.22 | 0.22 | 52 | |
| 20260504220356 | 74 | 209 | 13.0 | 25.2 | 0.00 | 0.22 | 0.22 | 51 | |
| 20260504215853 | 74 | 154 | 9.6 | 13.9 | 0.00 | 0.22 | 0.22 | 52 | |
| 20260504215349 | 75 | 203 | 18.2 | 23.5 | 0.00 | 0.22 | 0.22 | 50 | |
| 20260504214845 | 75 | 173 | 13.0 | 19.1 | 0.00 | 0.22 | 0.22 | 51 | |
| 20260504214343 | 75 | 209 | 8.7 | 15.6 | 0.00 | 0.22 | 0.22 | 53 | |
| 20260504213839 | 74 | 220 | 10.4 | 19.1 | 0.00 | 0.22 | 0.22 | 52 | |
| 20260504213335 | 75 | 197 | 9.6 | 20.9 | 0.00 | 0.22 | 0.22 | 54 | |
| 20260504212833 | 74 | 196 | 14.8 | 19.1 | 0.00 | 0.22 | 0.22 | 50 | |
| 20260504212328 | 74 | 192 | 7.8 | 14.8 | 0.00 | 0.22 | 0.22 | 53 | |
| 20260504211827 | 74 | 132 | 9.6 | 21.7 | 0.00 | 0.22 | 0.22 | 51 | |
| 20260504211327 | 74 | 193 | 14.8 | 25.2 | 0.00 | 0.22 | 0.22 | 52 | |
| 20260504210825 | 74 | 184 | 9.6 | 15.6 | 0.00 | 0.22 | 0.22 | 52 | |
| 20260504210322 | 74 | 136 | 8.7 | 21.7 | 0.00 | 0.22 | 0.22 | 55 | |
| 20260504205819 | 73 | 212 | 15.6 | 22.6 | 0.00 | 0.22 | 0.22 | 53 | |
| 20260504205317 | 73 | 223 | 13.0 | 18.2 | 0.00 | 0.22 | 0.22 | 54 | |
| 20260504204815 | 74 | 235 | 11.3 | 13.0 | 0.00 | 0.22 | 0.22 | 53 | |
| 20260504204313 | 74 | 224 | 7.0 | 15.6 | 0.00 | 0.22 | 0.22 | 56 | |
| 20260504203812 | 74 | 227 | 7.8 | 15.6 | 0.00 | 0.22 | 0.22 | 56 | |
| 20260504203309 | 74 | 217 | 11.3 | 25.2 | 0.00 | 0.22 | 0.22 | 54 | |
| 20260504202810 | 74 | 212 | 12.2 | 20.0 | 0.00 | 0.22 | 0.22 | 55 | |
| 20260504202308 | 73 | 100 | 9.6 | 15.6 | 0.00 | 0.22 | 0.22 | 55 | |
| 20260504201804 | 73 | 195 | 7.8 | 19.1 | 0.00 | 0.22 | 0.22 | 54 | |
| 20260504201301 | 73 | 160 | 9.6 | 21.7 | 0.00 | 0.22 | 0.22 | 53 | |
| 20260504200759 | 73 | 190 | 9.6 | 15.6 | 0.00 | 0.22 | 0.22 | 55 | |
| 20260504200255 | 73 | 197 | 12.2 | 15.6 | 0.00 | 0.22 | 0.22 | 57 | |
| 20260504195752 | 73 | 214 | 9.6 | 20.9 | 0.00 | 0.22 | 0.22 | 57 | |
| 20260504195247 | 72 | 195 | 12.2 | 16.5 | 0.00 | 0.22 | 0.22 | 58 | |
| 20260504194745 | 72 | 220 | 13.0 | 26.1 | 0.00 | 0.22 | 0.22 | 58 | |
| 20260504194241 | 71 | 234 | 11.3 | 13.9 | 0.00 | 0.22 | 0.22 | 60 | |
| 20260504193737 | 71 | 200 | 10.4 | 16.5 | 0.00 | 0.22 | 0.22 | 60 | |
| 20260504193235 | 70 | 270 | 13.0 | 16.5 | 0.00 | 0.22 | 0.22 | 61 | |
| 20260504192733 | 70 | 244 | 14.8 | 18.2 | 0.00 | 0.22 | 0.22 | 63 | |
| 20260504192231 | 69 | 208 | 13.9 | 19.1 | 0.00 | 0.22 | 0.22 | 66 | |
| 20260504191729 | 69 | 242 | 13.0 | 19.1 | 0.00 | 0.22 | 0.22 | 65 | |
| 20260504191226 | 69 | 251 | 14.8 | 19.1 | 0.00 | 0.22 | 0.22 | 65 | |
| 20260504190721 | 68 | 246 | 10.4 | 13.0 | 0.00 | 0.22 | 0.22 | 68 | |
| 20260504190217 | 67 | 232 | 9.6 | 14.8 | 0.00 | 0.22 | 0.22 | 69 | |
| 20260504185714 | 67 | 240 | 8.7 | 13.0 | 0.00 | 0.22 | 0.22 | 69 | |
| 20260504185211 | 67 | 239 | 12.2 | 16.5 | 0.00 | 0.22 | 0.22 | 65 | |
| 20260504184707 | 67 | 229 | 9.6 | 11.3 | 0.00 | 0.22 | 0.22 | 68 | |
| 20260504184203 | 67 | 240 | 9.6 | 13.0 | 0.00 | 0.22 | 0.22 | 66 | |
| 20260504183659 | 67 | 214 | 7.8 | 11.3 | 0.00 | 0.22 | 0.22 | 65 | |
| 20260504183156 | 68 | 214 | 7.8 | 15.6 | 0.00 | 0.22 | 0.22 | 65 | |
| 20260504182654 | 68 | 215 | 4.3 | 13.0 | 0.00 | 0.22 | 0.22 | 65 | |
| 20260504182151 | 68 | 180 | 7.0 | 11.3 | 0.00 | 0.22 | 0.22 | 67 | |
| 20260504181649 | 68 | 216 | 7.8 | 9.6 | 0.00 | 0.22 | 0.22 | 67 | |
| 20260504181146 | 69 | 197 | 6.1 | 9.6 | 0.00 | 0.22 | 0.22 | 65 |